Content
SEND FEEDBACK

Daily
Averages
Monthly
Summary
Switzerland

GENEVA, SWITZERLAND


Home > Europe > Switzerland
Elevation: 1364 feet     Latitude: 46 15N     Longitude: 006 08E

WEATHER
 
SELECT A DAY
Number of Records: 305,383;   Date Range: 7/1/96 - 7/20/14
 
SHARE

PRINT THIS DATA

[ ← Previous Day ]
WEATHER ALMANAC - NOVEMBER 1, 2013
[ Next Day → ]
[ °C ]   °F
Weather ElementAverageHighLow
Temperature51.2 °F59 °F (3:20 pm)42.8 °F (2:50 am)
Dewpoint46.9 °F51.8 °F (7:20 pm)41 °F (2:00 am)
Humidity84.4 %100 % (1:20 am)64 % (3:00 pm)
Barometer30.12 in30.26 in (1:00 am)29.96 in (11:00 pm)
Wind Speed2.9 mph15 mph (11:50 pm)
Weather ElementAverage
Visibility6.2 mi
Wind DirectionESE (103.8 °)

Weather ElementTotal
Precipitation---
Heating Degree Days14.1 (Base 65)
Growing Degree Days0.9 (Base 50)
Averaged from 66 records on November 1, 2013
WEATHER CONDITIONS BREAKOUT
WIND DIRECTION BREAKOUT
WEATHER BY HOUR - NOVEMBER 1, 2013
[ °C ]   °F
Local TimeTemperatureDewpointHumidityBarometerVisibilityWind DirectionWind SpeedGust SpeedPrecipitationEventsConditions
12:20 AM46.4 °F44.6 °F93 %30.24 in6.2 miVariable1.2 mphScattered Clouds
12:50 AM46.4 °F44.6 °F93 %30.21 in6.2 miCalmScattered Clouds
1:00 AM46.0 °F43.0 °F86 %30.26 in7.0 miNW (310°)1.2 mphMist
1:20 AM44.6 °F44.6 °F100 %30.21 in6.2 miCalmPartly Cloudy
1:50 AM44.6 °F42.8 °F93 %30.21 in6.2 miVariable2.3 mphPartly Cloudy
2:00 AM43.0 °F41.0 °F89 %30.26 inWest (270°)1.2 mph
2:50 AM42.8 °F42.8 °F100 %30.21 in6.2 miVariable1.2 mphPartly Cloudy
3:00 AM43.0 °F41.0 °F88 %30.25 inWNW (290°)2.3 mph
3:20 AM42.8 °F42.8 °F100 %30.21 in5.6 miWNW (290°)2.3 mphPartly Cloudy
3:50 AM42.8 °F42.8 °F100 %30.18 in5.6 miCalmScattered Clouds
4:20 AM42.8 °F42.8 °F100 %30.18 in6.2 miCalmMostly Cloudy
4:50 AM42.8 °F42.8 °F100 %30.18 in5.6 miCalmMostly Cloudy
5:00 AM45.0 °F42.0 °F87 %30.22 inWest (260°)1.2 mph
5:20 AM42.8 °F42.8 °F100 %30.18 in5.6 miCalmScattered Clouds
5:50 AM44.6 °F44.6 °F100 %30.18 in5.6 miCalmMostly Cloudy
6:00 AM44.0 °F42.0 °F92 %30.22 inWNW (290°)2.3 mph
6:20 AM44.6 °F42.8 °F93 %30.18 in6.2 miVariable1.2 mphMostly Cloudy
6:50 AM42.8 °F42.8 °F100 %30.18 in5.6 miCalmMostly Cloudy
7:00 AM45.0 °F43.0 °F88 %30.21 in9.0 miWSW (240°)1.2 mphMist
7:20 AM44.6 °F44.6 °F100 %30.18 in5.0 miVariable1.2 mphFogFog
7:50 AM44.6 °F44.6 °F100 %30.18 in5.6 miVariable1.2 mphFogFog
8:00 AM46.0 °F44.0 °F90 %30.22 inNW (310°)2.3 mph
8:20 AM46.4 °F44.6 °F93 %30.18 in5.6 miVariable1.2 mphMostly Cloudy
8:50 AM48.2 °F46.4 °F93 %30.18 in5.0 miVariable1.2 mphMostly Cloudy
9:00 AM48.0 °F44.0 °F82 %30.21 inNorth1.2 mph
9:20 AM48.2 °F46.4 °F93 %30.18 in5.0 miCalmMostly Cloudy
9:50 AM50.0 °F46.4 °F87 %30.18 in6.2 miVariable1.2 mphMostly Cloudy
10:20 AM50.0 °F46.4 °F87 %30.18 in5.6 miVariable1.2 mphMostly Cloudy
10:50 AM51.8 °F46.4 °F82 %30.18 in5.6 miVariable1.2 mphMostly Cloudy
11:00 AM51.0 °F45.0 °F73 %30.19 inNE (40°)2.3 mph
11:20 AM53.6 °F46.4 °F77 %30.15 in6.2 miVariable1.2 mphMostly Cloudy
11:50 AM53.6 °F48.2 °F82 %30.15 in6.2 miVariable1.2 mphMostly Cloudy
12:00 PM52.0 °F46.0 °F73 %30.16 inNE (50°)2.3 mph
12:20 PM53.6 °F48.2 °F82 %30.15 in6.2 miVariable1.2 mphMostly Cloudy
12:50 PM53.6 °F48.2 °F82 %30.12 in6.2 miVariable2.3 mphMostly Cloudy
1:00 PM54.0 °F47.0 °F68 %30.14 in7.0 miWest (280°)2.3 mphMist
1:20 PM55.4 °F48.2 °F77 %30.12 in6.2 miVariable2.3 mphMostly Cloudy
1:50 PM55.4 °F48.2 °F77 %30.09 in6.2 miVariable1.2 mphMostly Cloudy
2:00 PM54.0 °F47.0 °F69 %30.12 inNE (50°)1.2 mph
2:20 PM55.4 °F48.2 °F77 %30.09 in6.2 miVariable1.2 mphMostly Cloudy
2:50 PM57.2 °F50.0 °F77 %30.09 in6.2 miVariable1.2 mphMostly Cloudy
3:00 PM57.0 °F48.0 °F64 %30.08 inSW (230°)4.6 mph
3:20 PM59.0 °F50.0 °F72 %30.06 in6.2 miWest (260°)4.6 mphMostly Cloudy
3:50 PM55.4 °F50.0 °F82 %30.06 in6.2 miVariable2.3 mphMostly Cloudy
4:20 PM55.4 °F50.0 °F82 %30.06 in6.2 miVariable1.2 mphMostly Cloudy
4:50 PM55.4 °F50.0 °F82 %30.04 in6.2 miSW (220°)3.5 mphMostly Cloudy
5:00 PM57.0 °F49.0 °F68 %30.04 inWSW (240°)4.6 mph
5:20 PM55.4 °F50.0 °F82 %30.04 in6.2 miWSW (250°)4.6 mphMostly Cloudy
5:50 PM55.4 °F50.0 °F82 %30.04 in6.2 miVariable1.2 mphMostly Cloudy
6:00 PM56.0 °F49.0 °F72 %30.04 inWSW (250°)3.5 mph
6:20 PM59.0 °F50.0 °F72 %30.04 in6.2 miVariable1.2 mphMostly Cloudy
6:50 PM59.0 °F50.0 °F72 %30.04 in6.2 miVariable2.3 mphMostly Cloudy
7:00 PM56.0 °F50.0 °F74 %30.02 in9.0 miNNW (330°)1.2 mphMist
7:20 PM55.4 °F51.8 °F88 %30.01 in6.2 miCalmMostly Cloudy
7:50 PM53.6 °F51.8 °F94 %30.01 in6.2 miVariable1.2 mphMostly Cloudy
8:00 PM54.0 °F49.0 °F79 %30.01 inWest (270°)1.2 mph
8:20 PM53.6 °F51.8 °F94 %30.01 in6.2 miSouth (180°)6.9 mphMostly Cloudy
8:50 PM59.0 °F50.0 °F72 %30.01 in6.2 miSSW (200°)13.8 mphMostly Cloudy
9:00 PM57.0 °F49.0 °F68 %29.99 inSSW (210°)11.5 mph
9:20 PM57.2 °F50.0 °F77 %30.01 in6.2 miSW (220°)10.4 mphMostly Cloudy
9:50 PM57.2 °F51.8 °F82 %30.01 in6.2 miSW (230°)6.9 mphMostly Cloudy
10:20 PM57.2 °F51.8 °F82 %30.01 in6.2 miSW (230°)9.2 mphMostly Cloudy
10:50 PM57.2 °F51.8 °F82 %29.98 in6.2 miSW (220°)9.2 mphMostly Cloudy
11:00 PM58.0 °F50.0 °F66 %29.96 inSSW (210°)11.5 mph
11:20 PM59.0 °F51.8 °F77 %29.98 in6.2 miSSW (210°)10.4 mphMostly Cloudy
11:50 PM57.2 °F51.8 °F82 %29.98 in6.2 miSSW (210°)15.0 mphMostly Cloudy
Hourly data recorded from LSGG, located miles away from Geneva, Switzerland







STORIES FROM OUR PARTNERS